Flag for Germany Weather past 2 weeks in Lutherstadt Eisleben, Saxony-Anhalt, Germany

Now
62 °F

Sprinkles. Overcast.


Feels Like: 62 °F
Forecast: 51 / 68 °F
Wind: 2 mph from North

Location: Leipzig-Schkeuditz

Current Time: Oct 1, 2014 at 12:51:40 AM

Latest Report: Oct 1, 2014 at 12:00 AM


Visibility: 2 mi

Pressure: 30.29 "Hg

Humidity: 95%

Dew point: 60 °F

Location of Lutherstadt EislebenLocation

Historic Weather in Lutherstadt Eisleben — Graph

°F

Lutherstadt Eisleben temperature yesterday

Maximum temperature yesterday: 69 °F (at 5:00 PM)
Minimum temperature yesterday: 60 °F (at 7:00 AM)
Average temperature yesterday: 63 °F

Past Weeks' High & Low Weather Summary

 TemperatureHumidityPressure
High77 °F (Sep 29, 3:00 PM)98% (Sep 20, 2:00 AM)30.39 "Hg (Sep 20, 2:00 AM)
Low44 °F (Sep 24, 7:00 AM)40% (Sep 17, 5:00 PM)29.85 "Hg (Sep 24, 8:00 PM)
Average59 °F81%30.06 "Hg
* Reported Sep 15 11:00 PM — Sep 30 11:00 PM, Lutherstadt Eisleben, Weather by CustomWeather, © 2014

Note: Actual official high and low records may vary slightly from our data, if they occured in-between our weather recording intervals... More about our weather records

Advertising

Lutherstadt Eisleben weather history for previous 24 hours

 ConditionsComfort  
Time TempWeatherWind HumidityBarometerVisibility
11:00 PM
Sep 30
62 °FOvercast.1 mph93%30.28 "Hg4 mi
10:00 PM62 °FSprinkles. Overcast.1 mph92%30.28 "Hg6 mi
9:00 PM62 °FSprinkles. Overcast.1 mph88%30.27 "Hg11 mi
8:00 PM64 °FOvercast.1 mph86%30.27 "Hg11 mi
7:00 PM65 °FOvercast.1 mph84%30.26 "Hg19 mi
6:00 PM66 °FSprinkles. Overcast.1 mph78%30.25 "Hg28 mi
5:00 PM69 °FOvercast.1 mph69%30.24 "Hg22 mi
4:00 PM69 °FOvercast.1 mph68%30.24 "Hg22 mi
3:00 PM67 °FOvercast.2 mph71%30.25 "Hg22 mi
2:00 PM69 °FOvercast.2 mph68%30.24 "Hg25 mi
1:00 PM67 °FOvercast.5 mph75%30.25 "Hg19 mi
12:00 PM66 °FPartly sunny.6 mph76%30.24 "Hg16 mi
10:00 AM63 °FOvercast.3 mph91%30.24 "Hg7 mi
9:00 AM60 °FLight rain. Overcast.2 mph93%30.24 "Hg5 mi
8:00 AM60 °FOvercast.1 mph90%30.23 "Hg5 mi
7:00 AM60 °FOvercast.2 mph90%30.22 "Hg11 mi
6:00 AM61 °FOvercast.3 mph88%30.22 "Hg12 mi
4:00 AM61 °FOvercast.2 mph83%30.22 "Hg16 mi
3:00 AM61 °FOvercast.2 mph83%30.22 "Hg16 mi
2:00 AM60 °FOvercast.1 mph85%30.22 "Hg19 mi
1:00 AM61 °FOvercast.2 mph83%30.22 "Hg22 mi
12:00 AM62 °FOvercast.2 mph81%30.22 "Hg25 mi
Weather by CustomWeather, © 2014

See weather overviewHow to use our weather pages